Location: Degersen
(52.2871°N, 9.5716°E)
Time: 20:32:00
(UTC+00:00)

Cosmos 2184 Rocket - Pass Details

Date: 20 January 2026
Orbit: 959 x 1001 km, 82.9° (Epoch: 16 February)

Event Time Altitude Azimuth Distance (km) Brightness Sun altitude
Rises 04:00:57 0° 174° (S) 3,645 7.0 -29.7°
Reaches altitude 10° 04:03:29 10° 170° (S) 2,698 6.3 -29.3°
Maximum altitude 04:09:30 59° 93° (E) 1,108 4.5 -28.4°
Drops below altitude 10° 04:15:32 10° 16° (NNE) 2,704 6.5 -27.5°
Sets 04:18:05 0° 13° (NNE) 3,655 7.2 -27.1°
